This demonstration page uses our WeatherBlox Daily Observations layout. Learn more.

Left ArrowRight Arrow

39.51506, -84.39828

Hourly Observations for May 2, 2021

Temp ( °F °C ) Dew Point ( °F °C ) Humidity (%) Winds ( mph kmh ) Pressure ( in mb ) Visibility ( mi km ) Precip ( " mm )
12:15 am 00:15 Clear 56 13.2 46 7.5 69 69 SW 7 11 29.90 1013 10 16 0.00 0.00
12:35 am 00:35 Clear 56 13.3 45 7.4 68 68 SW 7 11 29.90 1013 10 16 0.00 0.00
12:55 am 00:55 Clear 56 13.1 46 7.6 70 70 WSW 8 13 29.90 1013 10 16 0.00 0.00
1:15 am 01:15 Clear 56 13.6 46 7.5 67 67 WSW 8 13 29.90 1013 10 16 0.00 0.00
1:35 am 01:35 Clear 57 13.9 45 7.4 65 65 WSW 8 13 29.90 1013 10 16 0.00 0.00
1:55 am 01:55 Clear 58 14.3 46 7.6 64 64 WSW 8 13 29.89 1012 10 16 0.00 0.00
2:15 am 02:15 Clear 57 14.1 46 7.8 66 66 WSW 7 11 29.89 1012 10 16 0.00 0.00
2:35 am 02:35 Clear 58 14.3 46 7.6 64 64 WSW 5 7 29.89 1012 10 16 0.00 0.00
2:55 am 02:55 Clear 56 13.4 46 7.7 69 69 WSW 7 11 29.89 1012 10 16 0.00 0.00
3:15 am 03:15 Clear 56 13.4 46 8 70 70 SW 8 13 29.88 1012 10 16 0.00 0.00
3:35 am 03:35 Clear 56 13.6 46 8 69 69 WSW 8 13 29.88 1012 10 16 0.00 0.00
3:55 am 03:55 Clear 57 13.7 47 8.1 69 69 WSW 9 15 29.88 1012 10 16 0.00 0.00
4:15 am 04:15 Clear 57 13.8 47 8.3 70 70 SW 8 13 29.88 1012 10 16 0.00 0.00
4:35 am 04:35 Clear 56 13.4 47 8.3 71 71 W 6 9 29.88 1012 10 16 0.00 0.00
4:55 am 04:55 Clear 55 12.8 47 8.3 74 74 WSW 5 7 29.88 1012 10 16 0.00 0.00
5:15 am 05:15 Clear 56 13.4 47 8.1 71 71 Calm 29.88 1012 10 16 0.00 0.00
5:35 am 05:35 Clear 57 13.7 47 8.2 70 70 Calm 29.88 1012 10 16 0.00 0.00
5:55 am 05:55 Clear 52 11 47 8.2 83 83 Calm 29.89 1012 10 16 0.00 0.00
6:15 am 06:15 Clear 51 10.3 48 9 92 92 Calm 29.90 1012 10 16 0.00 0.00
6:35 am 06:35 Clear 55 12.8 47 8.6 76 76 Calm 29.89 1012 10 16 0.00 0.00
6:55 am 06:55 Sunny 54 12.4 47 8.6 78 78 Calm 29.89 1012 10 16 0.00 0.00
7:15 am 07:15 Sunny 51 10.8 49 9.5 92 92 Calm 29.91 1013 10 16 0.00 0.00
7:35 am 07:35 Sunny 54 12.3 51 10.3 88 88 Calm 29.90 1013 10 16 0.00 0.00
7:55 am 07:55 Sunny 57 14 52 11.1 83 83 Calm 29.90 1012 10 16 0.00 0.00
8:15 am 08:15 Sunny 59 15.2 50 9.9 71 71 SW 6 9 29.91 1013 10 16 0.00 0.00
8:35 am 08:35 Sunny 61 15.9 49 9.5 66 66 SW 5 7 29.89 1012 10 16 0.00 0.00
8:55 am 08:55 Sunny 62 16.6 50 10 65 65 SW 7 11 29.89 1012 10 16 0.00 0.00
9:15 am 09:15 Sunny 63 17.4 49 9.4 60 60 WSW 9 15 29.89 1012 10 16 0.00 0.00
9:35 am 09:35 Sunny 65 18.3 49 9.5 57 57 SW 8 13 29.89 1012 10 16 0.00 0.00
9:55 am 09:55 Sunny 66 19.1 49 9.5 54 54 WSW 7 11 29.88 1012 10 16 0.00 0.00
10:15 am 10:15 Sunny 68 19.8 49 9.6 52 52 SW 10 17 29.88 1012 10 16 0.00 0.00
10:35 am 10:35 Sunny 68 20 50 10 53 53 SW 12 19 29.86 1011 10 16 0.00 0.00
10:55 am 10:55 Sunny 69 20.5 50 10.2 52 52 SW 12 19 29.86 1011 10 16 0.00 0.00
11:15 am 11:15 Sunny 72 22 50 10.2 47 47 SW 14 22 29.86 1011 10 16 0.00 0.00
11:35 am 11:35 Sunny 72 22.4 52 10.9 48 48 SW 14 22 29.85 1011 10 16 0.00 0.00
11:55 am 11:55 Sunny 73 22.7 52 10.9 47 47 SW 12 19 29.85 1011 10 16 0.00 0.00
12:15 pm 12:15 Sunny 74 23.4 52 11 46 46 SW 16 26 29.84 1010 10 16 0.00 0.00
12:35 pm 12:35 Sunny 75 23.9 52 11.3 45 45 WSW 15 24 29.84 1010 10 16 0.00 0.00
12:55 pm 12:55 Sunny 76 24.2 53 11.4 45 45 SW 16 26 29.83 1010 10 16 0.00 0.00
1:15 pm 13:15 Sunny 76 24.4 53 11.8 45 45 SW 14 22 29.81 1010 10 16 0.00 0.00
1:35 pm 13:35 Sunny 76 24.7 53 11.6 44 44 SW 14 22 29.81 1010 10 16 0.00 0.00
1:55 pm 13:55 Sunny 78 25.4 53 11.5 42 42 SSW 20 31 29.80 1009 10 16 0.00 0.00
2:15 pm 14:15 Sunny 78 25.6 51 10.7 39 39 SW 16 26 29.79 1009 10 16 0.00 0.00
2:35 pm 14:35 Sunny 78 25.7 53 11.6 41 41 SW 15 24 29.79 1009 10 16 0.00 0.00
2:55 pm 14:55 Sunny 78 25.5 51 10.5 39 39 SW 20 31 29.79 1009 10 16 0.00 0.00
3:15 pm 15:15 Sunny 78 25.3 51 10.8 40 40 SW 16 26 29.79 1009 10 16 0.00 0.00
3:35 pm 15:35 Sunny 77 25.2 51 10.3 39 39 WSW 18 30 29.78 1009 10 16 0.00 0.00
3:55 pm 15:55 Sunny 77 25.1 49 9.6 38 38 WSW 20 31 29.78 1009 10 16 0.00 0.00
4:15 pm 16:15 Sunny 77 24.8 51 10.7 41 41 WSW 17 28 29.77 1008 10 16 0.00 0.00
4:35 pm 16:35 Sunny 77 24.9 51 10.6 41 41 WSW 18 30 29.77 1008 10 16 0.00 0.00
4:55 pm 16:55 Sunny 76 24.6 51 10.8 42 42 WSW 18 30 29.77 1008 10 16 0.00 0.00
5:15 pm 17:15 Sunny 75 24.1 50 10.2 42 42 WSW 16 26 29.79 1009 10 16 0.00 0.00
5:35 pm 17:35 Mostly Cloudy 75 23.9 50 10 41 41 SW 16 26 29.78 1008 10 16 0.00 0.00
5:55 pm 17:55 Mostly Cloudy 74 23.6 50 10.1 43 43 WSW 16 26 29.78 1008 10 16 0.00 0.00
6:15 pm 18:15 Cloudy 74 23.2 49 9.7 42 42 SW 20 31 29.78 1008 10 16 0.00 0.00
6:35 pm 18:35 Cloudy 73 22.7 50 10 45 45 SW 13 20 29.79 1009 10 16 0.00 0.00
6:55 pm 18:55 Mostly Cloudy 72 22.3 49 9.7 45 45 SW 16 26 29.79 1009 10 16 0.00 0.00
7:15 pm 19:15 Partly Cloudy 71 21.8 49 9.5 46 46 SW 21 33 29.80 1009 10 16 0.00 0.00
7:35 pm 19:35 Partly Cloudy 70 21.2 49 9.7 48 48 SW 17 28 29.80 1009 10 16 0.00 0.00
7:55 pm 19:55 Sunny 69 20.3 51 10.4 53 53 SW 12 19 29.80 1009 10 16 0.00 0.00
8:15 pm 20:15 Cloudy with Light Rain 67 19.2 53 11.6 62 62 WSW 9 15 29.82 1010 10 16 0.00 0.00
8:35 pm 20:35 Cloudy with Light Rain 65 18.5 54 12.3 67 67 SW 8 13 29.82 1010 10 16 0.00 0.00
8:55 pm 20:55 Cloudy with Light Rain 64 17.8 55 12.5 71 71 SW 16 26 29.83 1010 10 16 0.00 0.00
9:15 pm 21:15 Cloudy with Light Rain 62 16.6 56 13.5 82 82 SSW 7 11 29.83 1010 10 16 0.00 0.00
9:35 pm 21:35 Cloudy with Light Rain 62 16.8 55 12.5 76 76 SSW 8 13 29.83 1010 10 16 0.00 0.00
9:55 pm 21:55 Cloudy with Light Rain 61 16.2 56 13.2 83 83 SSW 3 6 29.82 1010 10 16 0.00 0.00
10:15 pm 22:15 Cloudy with Light Rain 60 15.3 59 14.8 97 97 Calm 29.84 1010 10 16 0.00 0.00
10:35 pm 22:35 Cloudy with Light Rain 60 15.4 58 14.5 94 94 SSW 3 6 29.84 1010 10 16 0.01 0.25
10:55 pm 22:55 Cloudy with Light Rain 62 16.4 55 12.7 79 79 S 7 11 29.83 1010 10 16 0.01 0.25
11:15 pm 23:15 Cloudy with Light Rain 62 16.4 54 12.2 76 76 SSW 8 13 29.81 1010 10 16 0.00 0.00
11:35 pm 23:35 Cloudy 61 16.3 54 12 76 76 SSW 7 11 29.80 1009 10 16 0.00 0.00
11:55 pm 23:55 Cloudy with Light Rain 60 15.8 54 12.4 80 80 S 6 9 29.80 1009 10 16 0.00 0.00

Powered by AerisWeather